Content
SEND FEEDBACK

Daily
Averages
Monthly
Summary
France

ROUEN, FRANCE


Home > Europe > France
Elevation: 515 feet     Latitude: 49 23N     Longitude: 001 11E

WEATHER
 
SELECT A DAY
Number of Records: 172,293;   Date Range: 7/1/96 - 7/11/14
 
SHARE

PRINT THIS DATA

[ ← Previous Day ]
WEATHER ALMANAC - MARCH 23, 2013
[ Next Day → ]
[ °C ]   °F
Weather ElementAverageHighLow
Temperature44.3 °F48.2 °F (2:30 pm)41 °F (5:00 am)
Dewpoint38.4 °F41 °F (1:00 pm)35.6 °F (7:00 am)
Humidity79.1 %87 % (2:00 am)66 % (1:00 am)
Barometer29.69 in29.74 in (9:00 pm)29.65 in (12:30 am)
Wind Speed8.4 mph11.5 mph (2:00 am)
Weather ElementAverage
Visibility4 mi
Wind DirectionENE (83.1 °)

Weather ElementTotal
Precipitation---
Heating Degree Days20.4 (Base 65)
Averaged from 51 records on March 23, 2013
WEATHER CONDITIONS BREAKOUT
WIND DIRECTION BREAKOUT
WEATHER BY HOUR - MARCH 23, 2013
[ °C ]   °F
Local TimeTemperatureDewpointHumidityBarometerVisibilityWind DirectionWind SpeedGust SpeedPrecipitationEventsConditions
12:30 AM46.4 °F37.4 °F71 %29.65 in6.2 miESE (110°)9.2 mph
1:00 AM45.0 °F37.0 °F66 %29.68 in8.0 miESE (110°)8.1 mphRainLight Rain
1:00 AM44.6 °F37.4 °F76 %29.65 in6.2 miESE (110°)8.1 mphRainLight Rain
1:30 AM44.6 °F37.4 °F76 %29.65 in5.0 miEast (100°)10.4 mphRainLight Rain
2:00 AM42.8 °F39.2 °F87 %29.65 in5.0 miEast (80°)11.5 mphRainLight Rain
2:30 AM42.8 °F39.2 °F87 %29.65 in5.0 miENE (70°)9.2 mphRainLight Rain
3:00 AM42.8 °F37.4 °F81 %29.65 in4.3 miENE (70°)8.1 mph
3:30 AM42.8 °F37.4 °F81 %29.65 in3.7 miEast (80°)9.2 mphOvercast
4:00 AM42.8 °F37.4 °F81 %29.65 in3.1 miENE (70°)9.2 mphOvercast
4:30 AM42.8 °F37.4 °F81 %29.65 in3.1 miENE (70°)8.1 mphOvercast
5:00 AM41.0 °F37.4 °F87 %29.65 in3.1 miEast (80°)5.8 mphOvercast
5:30 AM41.0 °F37.4 °F87 %29.65 in3.1 miENE (70°)9.2 mphRainLight Rain
6:00 AM41.0 °F37.4 °F87 %29.65 in3.1 miEast (80°)9.2 mphLight Drizzle
6:30 AM41.0 °F37.4 °F87 %29.68 in3.1 miEast (80°)9.2 mphOvercast
7:00 AM41.0 °F36.0 °F77 %29.70 in3.0 miEast (80°)9.2 mphRainLight Rain
7:00 AM41.0 °F35.6 °F81 %29.68 in3.1 miEast (80°)8.1 mphOvercast
7:30 AM41.0 °F35.6 °F81 %29.68 in3.1 miEast (80°)10.4 mphOvercast
8:00 AM41.0 °F35.6 °F81 %29.68 in3.7 miEast (90°)8.1 mphOvercast
8:30 AM42.8 °F35.6 °F76 %29.68 in3.7 miEast (90°)8.1 mphOvercast
9:00 AM42.8 °F37.4 °F81 %29.68 in3.7 miEast (100°)9.2 mphOvercast
9:30 AM42.8 °F37.4 °F81 %29.68 inEast (90°)8.1 mphRainLight Rain
10:00 AM42.8 °F39.2 °F87 %29.68 in3.1 miEast (80°)9.2 mphRainLight Rain
10:30 AM44.6 °F37.4 °F76 %29.68 in3.7 miENE (70°)8.1 mphOvercast
11:00 AM44.6 °F37.4 °F76 %29.68 in3.7 miEast (100°)8.1 mphOvercast
11:30 AM46.4 °F39.2 °F76 %29.68 in4.3 miESE (110°)9.2 mph
12:00 PM46.4 °F39.2 °F76 %29.71 in4.3 miESE (120°)10.4 mphOvercast
12:30 PM46.4 °F39.2 °F76 %29.71 in3.7 miESE (110°)8.1 mphOvercast
1:00 PM47.0 °F40.0 °F70 %29.73 in4.0 miESE (120°)6.9 mphPartly Cloudy
1:00 PM46.4 °F41.0 °F81 %29.71 in4.3 miESE (110°)8.1 mphOvercast
1:30 PM46.4 °F39.2 °F76 %29.71 in3.7 miSE (130°)8.1 mphOvercast
2:00 PM46.4 °F41.0 °F81 %29.71 in3.7 miEast (100°)6.9 mphOvercast
2:30 PM48.2 °F41.0 °F76 %29.71 in3.7 miEast (90°)5.8 mphOvercast
3:00 PM48.2 °F41.0 °F76 %29.68 in3.7 miEast (80°)4.6 mphOvercast
3:30 PM48.2 °F41.0 °F76 %29.68 in3.7 miEast (80°)5.8 mphOvercast
4:00 PM48.2 °F41.0 °F76 %29.68 in3.7 miEast (90°)5.8 mphOvercast
4:30 PM48.2 °F41.0 °F76 %29.68 in3.7 miENE (60°)6.9 mphOvercast
5:00 PM46.4 °F41.0 °F81 %29.68 in3.7 miEast (80°)6.9 mphOvercast
5:30 PM46.4 °F41.0 °F81 %29.71 in4.3 miEast (80°)9.2 mphOvercast
6:00 PM46.4 °F39.2 °F76 %29.68 in4.3 miENE (70°)9.2 mphOvercast
6:30 PM46.4 °F39.2 °F76 %29.68 in4.3 miENE (70°)9.2 mphOvercast
7:00 PM45.0 °F39.0 °F74 %29.73 in4.0 miNE (50°)6.9 mphClear
7:00 PM44.6 °F39.2 °F81 %29.71 in3.7 miNE (50°)6.9 mphOvercast
7:30 PM44.6 °F39.2 °F81 %29.71 in3.7 miENE (60°)8.1 mphOvercast
8:00 PM44.6 °F39.2 °F81 %29.71 in4.3 miENE (60°)9.2 mphOvercast
8:30 PM44.6 °F39.2 °F81 %29.71 in4.3 miENE (60°)9.2 mphOvercast
9:00 PM44.6 °F37.4 °F76 %29.74 in4.3 miENE (60°)9.2 mphOvercast
9:30 PM44.6 °F37.4 °F76 %29.74 in4.3 miENE (70°)8.1 mphOvercast
10:00 PM42.8 °F37.4 °F81 %29.71 in3.7 miENE (60°)9.2 mphOvercast
10:30 PM42.8 °F37.4 °F81 %29.71 in3.7 miEast (80°)9.2 mphOvercast
11:00 PM42.8 °F37.4 °F81 %29.71 in3.7 miEast (80°)10.4 mphOvercast
11:30 PM42.8 °F37.4 °F81 %29.74 in3.1 miENE (70°)8.1 mphOvercast
Hourly data recorded from LFOP, located miles away from Rouen, France







STORIES FROM OUR PARTNERS